Theta_e
296 297 298 301 308 313 315 316 317 316 312 311 311 308 307 306 305 305 306 308 309 309 309 309 309 310 311 309 310 310 309 311
294 294 296 299 307 312 313 314 315 314 313 311 310 307 307 305 305 305 306 308 308 309 309 308 308 310 310 309 310 309 309 310
293 293 295 298 306 310 312 312 313 313 312 311 308 307 305 304 304 305 306 308 309 309 309 308 308 309 309 308 309 308 308 309
295 296 297 300 305 308 310 310 311 311 311 309 307 305 304 304 304 305 306 308 309 309 308 308 308 308 309 308 309 309 309 309
298 299 301 303 303 305 307 308 309 309 309 307 306 304 304 304 303 304 306 307 307 308 308 307 307 308 309 309 309 309 309 309
297 298 300 301 302 304 305 308 309 308 307 306 306 305 304 303 303 304 305 307 307 307 307 307 307 308 308 309 308 308 308 309
298 298 299 300 301 302 303 305 308 307 306 306 304 304 303 302 302 303 304 305 306 306 306 306 307 299 300 306 308 308 310 309
296 297 298 300 301 301 302 304 305 306 306 304 304 303 302 302 302 302 303 305 305 305 305 305 305 299 299 299 307 307 309 309
297 297 299 300 300 301 302 303 303 304 304 304 302 301 301 301 301 301 302 303 304 304 305 305 304 298 298 296 305 305 305 307
296 298 298 299 301 300 301 301 302 303 303 303 302 301 300 300 300 300 301 302 303 304 304 304 300 296 296 301 303 301 301 303
293 297 298 299 301 300 299 300 300 302 303 303 302 301 300 300 299 300 301 301 302 302 304 297 300 294 295 301 301 299 298 298
292 292 294 297 298 297 298 298 300 298 300 301 301 300 301 300 299 299 298 299 299 298 299 300 300 297 295 298 301 300 298 298
289 288 290 290 294 292 295 294 295 295 295 295 296 299 299 298 296 295 297 295 294 293 292 290 296 294 294 297 299 299 299 296
285 285 285 285 289 289 288 290 290 291 290 292 292 293 295 296 292 293 294 294 293 294 295 291 289 294 294 296 297 296 295 294
284 284 284 284 284 286 286 288 288 288 289 289 290 291 291 292 294 293 293 292 291 290 292 291 289 291 292 291 295 292 291 291
282 282 283 283 283 282 286 288 288 288 287 288 288 290 289 291 293 292 291 294 293 293 292 291 291 292 294 294 292 293 291 288
279 281 283 283 283 282 284 286 288 287 287 288 288 288 288 289 287 290 292 293 294 293 293 286 292 293 293 293 293 293 291 287
281 280 281 282 284 281 280 285 285 286 287 287 288 289 290 289 289 288 287 291 293 293 293 292 291 293 293 293 293 293 293 288
278 281 282 282 282 284 283 282 283 285 286 287 288 288 289 289 289 289 288 288 286 289 292 291 291 292 293 293 292 288 289 287
276 276 279 281 284 284 280 281 282 284 285 285 288 288 288 288 289 289 289 288 286 286 288 288 291 291 292 292 290 290 289 289
Wind_Speed
6 8 11 15 18 20 20 21 21 20 18 16 15 15 14 13 14 12 11 11 11 9 7 7 7 6 6 5 5 6 3 4
8 7 8 9 15 17 17 17 17 18 17 17 15 15 15 13 13 13 13 13 12 11 8 7 7 6 6 6 6 7 6 6
9 9 8 11 13 14 15 15 17 17 16 16 15 15 15 14 14 14 14 12 13 11 9 8 8 7 7 7 6 7 7 7
7 7 7 8 11 12 14 13 14 16 16 14 15 15 16 15 15 14 14 12 11 11 10 8 8 7 7 7 7 7 7 7
4 5 6 6 7 8 10 13 13 14 15 16 16 16 15 15 15 14 13 13 11 10 9 7 8 7 7 7 7 7 6 7
2 4 6 7 7 6 7 13 13 14 15 15 14 15 15 16 15 14 14 12 12 11 8 7 8 7 7 7 7 8 7 7
6 2 5 6 5 5 7 11 12 14 14 13 15 15 16 16 15 15 13 12 11 10 10 10 6 12 11 9 8 8 10 10
8 8 5 6 7 7 8 9 11 13 12 13 14 15 15 15 15 15 15 13 12 11 11 10 7 14 13 11 7 9 11 11
6 6 8 6 6 7 8 8 10 12 13 14 15 15 14 15 15 14 13 14 13 11 11 10 7 13 13 10 7 6 7 9
6 6 7 7 8 8 8 6 8 11 13 14 15 15 15 15 15 13 13 11 11 11 12 11 8 14 14 9 7 6 7 7
8 6 6 7 8 8 7 7 7 7 10 11 13 15 16 15 15 13 12 12 9 10 10 10 11 12 14 10 6 6 5 5
9 8 6 5 7 7 6 6 6 6 6 7 8 11 11 12 9 12 10 10 10 9 7 9 11 12 15 13 7 7 6 6
9 9 7 7 6 7 6 3 6 7 7 7 7 7 9 12 9 9 10 9 8 8 5 3 8 13 12 14 9 10 7 6
8 8 8 7 6 7 2 5 6 6 6 6 7 6 8 11 9 8 9 9 8 8 7 4 2 6 13 14 12 11 6 5
9 10 10 7 6 5 4 5 6 7 6 5 6 6 6 5 8 9 9 8 8 7 7 4 3 4 5 4 6 7 6 8
7 7 8 7 6 4 5 5 6 6 5 4 4 5 5 5 6 7 5 9 11 10 10 11 8 8 10 11 7 6 6 7
4 5 8 7 7 6 4 4 7 5 3 4 4 3 3 5 4 9 7 11 10 10 8 2 8 15 14 14 12 13 15 4
4 4 6 7 7 4 3 3 3 6 6 4 4 5 5 5 6 6 5 4 12 14 12 13 10 19 17 15 16 17 13 4
4 5 5 6 6 6 3 2 3 3 5 5 3 4 5 5 5 5 6 6 2 0 8 14 14 17 22 18 14 6 3 3
3 3 4 3 6 6 3 1 2 2 2 3 4 4 3 4 5 5 5 5 3 2 2 6 11 15 20 20 9 9 8 6
Wind_Direction
156 163 158 171 176 179 182 182 177 176 175 178 172 164 158 156 157 154 151 150 154 160 161 153 151 151 134 133 128 120 116 116
164 160 150 148 170 175 177 176 172 171 173 174 168 161 155 155 152 150 149 151 157 160 161 149 145 151 132 142 140 131 128 118
144 150 159 164 166 171 171 170 170 168 169 172 160 156 152 153 152 148 151 156 159 156 160 147 146 152 145 150 148 141 139 135
109 143 162 163 165 162 165 158 160 162 163 162 163 156 154 151 148 148 151 156 157 153 158 153 147 148 144 150 148 147 145 142
113 142 148 136 131 140 143 147 156 161 162 164 164 158 153 148 148 148 152 151 153 155 154 153 142 147 146 150 146 141 143 143
85 97 120 118 131 136 137 150 159 161 163 165 158 152 147 147 149 147 152 154 152 150 148 147 146 153 149 152 148 143 143 143
178 71 93 116 150 162 147 151 161 162 163 159 152 150 151 149 148 147 147 148 149 150 152 151 154 154 154 150 151 145 155 152
165 177 150 139 142 153 142 146 166 162 156 152 154 150 152 151 148 151 153 152 156 153 152 156 149 159 161 154 149 149 165 163
138 155 171 125 136 137 141 150 161 167 154 155 153 150 149 150 152 152 155 158 159 155 155 154 157 163 160 150 140 138 152 157
36 114 131 139 137 136 144 145 160 171 160 158 155 152 154 156 156 154 153 154 159 159 158 155 155 165 160 141 138 142 148 144
23 62 102 117 132 141 148 147 153 162 159 154 156 158 160 156 156 156 155 155 152 155 159 146 156 173 164 146 142 145 146 138
32 39 31 73 125 125 130 148 139 130 128 135 144 153 154 148 146 151 147 145 151 151 150 148 157 175 171 151 157 156 154 160
41 41 18 13 90 110 99 104 127 126 124 130 135 137 144 142 138 135 139 136 141 137 130 135 159 168 183 158 147 147 154 164
28 25 26 16 55 84 60 108 106 105 114 122 122 128 135 138 134 128 138 148 150 157 162 152 143 164 172 164 156 160 135 151
14 14 18 14 37 68 87 95 103 111 113 108 119 119 119 125 148 147 153 151 153 152 163 152 140 148 159 160 159 144 122 134
8 2 356 360 31 43 77 102 99 106 115 118 110 127 125 127 151 150 163 167 167 177 170 166 184 193 177 173 168 160 151 111
355 356 344 4 12 27 40 96 125 116 126 135 129 123 119 128 91 41 144 154 158 155 168 141 142 163 163 167 150 147 140 94
360 341 346 350 359 353 29 70 109 138 154 146 141 150 155 144 150 146 11 114 169 166 162 165 163 169 173 160 159 164 153 144
335 323 333 342 336 331 357 71 102 82 150 157 161 154 153 156 156 150 164 168 175 241 156 165 162 164 181 172 146 161 196 147
248 19 12 339 318 323 348 37 116 130 162 157 161 176 161 149 155 155 162 169 134 102 83 156 157 164 175 173 184 185 191 185